Погода в Песочне

Россия / Рязанская область     54°06′33″N   40°49′22″E
темп.,
°C
ветер,
м/с
пор.,
м/с
влажн.,
%
обл.,
%
осадки,
мм/ч
давл.,
гПа
погр.,
м
4 июля, пн
пн400:00+15всв22885 0.0 101511
03:00+14с22890 0.0 101521
06:00+17св23835 0.0 1015109
09:00+22св34625 0.0 1015621
12:00+25ссв355133 0.0 10151649
15:00+25св345041 0.0 10141579
18:00+23вюв12641 0.0 101443
21:00+20ююв337190 0.0 101548
5 июля, вт
вт500:00+19ююв3571100 0.0 1016116
03:00+16юв12805 0.0 101612
06:00+18ююв24792 0.0 1016103
09:00+22юв236553 0.0 1017543
12:00+26юв325313 0.0 10161372
15:00+26юв225086 0.1 10161665
18:00+24вюв236185 0.0 1016216
21:00+19юв33710 0.0 101737
6 июля, ср
ср600:00+17ююв4107180 0.0 1017174
03:00+16ююв41071100 0.0 1017197
06:00+17ю487675 0.0 1017223
09:00+23ю44688 0.0 1016502
12:00+27ююз345639 0.0 10161233
15:00+28юз3452100 0.3 10151647
18:00+27ю466340 0.0 1014425
21:00+21ююз511735 0.0 1015237
7 июля, чт
чт700:00+19ююз488019 0.0 1015135
03:00+18ююз410858 0.0 1015173
06:00+20ююз4108011 0.0 1015299
09:00+25юз57615 0.0 1015562
12:00+28ююз56502 0.0 10151143
15:00+29ююз56440 0.0 10151922
18:00+27ю58562 0.0 1015458
21:00+21ююз59780 0.3 1016152
8 июля, пт
пт800:00+19ююз33810 0.2 101640
03:00+18юз36810 0.2 101793
06:00+19юз36800 0.0 1017171
09:00+25ююз34580 0.0 1017539
12:00+28ююз45450 0.0 10171238
15:00+29ююз44400 0.0 10161882
18:00+28ю245124 0.0 1015312
21:00+22ю34633 0.0 101648